UAL944 KORD-EDDF

Flight info

Callsign UAL944
Flight time 8h 1m
Altitude 34000
Route PMPKN NEATO DLLAN RONIC BAE DLL SAW BACMO DUPVO KESLU VODIX MIILS N371B JOOPY/M084F340 NATT BEXET/N0488F340 LIFFY UL975 WAL M16 DOLAS NAVPI NOLRU DIXAT DIXAT1A
Aircraft B77W/H-SDE1E2E3FGHIJ2J3J4J5M1RWXY/LB1D1

Departure

Time 2026-04-15 20:58
Airport Chicago O'Hare International Airport (KORD)

Arrival

Time 2026-04-16 04:59
Airport Frankfurt Main Airport (EDDF)
Time Latitude Longitude Altitude Speed Heading
2026-04-15 20:36 41.97766 -87.91124 674 ft 0 kts 101°
2026-04-15 20:44 41.97767 -87.91134 674 ft 2 kts 101°
2026-04-15 20:44 41.97770 -87.91155 674 ft 2 kts 104°
2026-04-15 20:44 41.97777 -87.91175 674 ft 2 kts 136°
2026-04-15 20:45 41.97790 -87.91189 671 ft 2 kts 143°
2026-04-15 20:45 41.97803 -87.91202 673 ft 2 kts 143°
2026-04-15 20:45 41.97817 -87.91212 672 ft 2 kts 190°
2026-04-15 20:45 41.97833 -87.91208 672 ft 2 kts 190°
2026-04-15 20:46 41.97839 -87.91206 672 ft 0 kts 190°
2026-04-15 20:49 41.97828 -87.91209 672 ft 5 kts 191°
2026-04-15 20:50 41.97811 -87.91249 670 ft 6 kts 277°
2026-04-15 20:50 41.97843 -87.91286 671 ft 6 kts 341°
2026-04-15 20:50 41.97888 -87.91285 672 ft 7 kts 13°
2026-04-15 20:50 41.97935 -87.91261 674 ft 8 kts 21°
2026-04-15 20:51 41.97986 -87.91233 674 ft 8 kts 24°
2026-04-15 20:51 41.98037 -87.91197 674 ft 8 kts 28°
2026-04-15 20:51 41.98088 -87.91160 674 ft 8 kts 29°
2026-04-15 20:51 41.98136 -87.91116 674 ft 8 kts 38°
2026-04-15 20:52 41.98175 -87.91059 674 ft 8 kts 56°
2026-04-15 20:52 41.98204 -87.90991 674 ft 8 kts 60°
2026-04-15 20:52 41.98231 -87.90922 673 ft 8 kts 65°
2026-04-15 20:52 41.98253 -87.90850 673 ft 8 kts 69°
2026-04-15 20:53 41.98271 -87.90776 673 ft 8 kts 75°
2026-04-15 20:53 41.98282 -87.90699 673 ft 8 kts 84°
2026-04-15 20:53 41.98286 -87.90621 672 ft 9 kts 86°
2026-04-15 20:53 41.98288 -87.90536 672 ft 10 kts 90°
2026-04-15 20:54 41.98287 -87.90442 673 ft 10 kts 90°
2026-04-15 20:54 41.98287 -87.90340 673 ft 11 kts 90°
2026-04-15 20:54 41.98288 -87.90230 673 ft 12 kts 90°
2026-04-15 20:54 41.98288 -87.90114 674 ft 13 kts 90°
2026-04-15 20:55 41.98289 -87.89998 674 ft 13 kts 89°
2026-04-15 20:55 41.98290 -87.89881 675 ft 13 kts 90°
2026-04-15 20:55 41.98289 -87.89763 675 ft 13 kts 90°
2026-04-15 20:55 41.98289 -87.89637 674 ft 14 kts 90°
2026-04-15 20:56 41.98288 -87.89519 674 ft 4 kts 90°
2026-04-15 20:56 41.98288 -87.89475 674 ft 5 kts 90°
2026-04-15 20:56 41.98288 -87.89427 674 ft 5 kts 90°
2026-04-15 20:56 41.98296 -87.89376 674 ft 6 kts 50°
2026-04-15 20:57 41.98334 -87.89386 675 ft 6 kts 324°
2026-04-15 20:57 41.98365 -87.89426 675 ft 6 kts 310°
2026-04-15 20:57 41.98386 -87.89503 676 ft 18 kts 278°
2026-04-15 20:57 41.98388 -87.89953 675 ft 93 kts 270°
2026-04-15 20:58 41.98372 -87.91266 678 ft 185 kts 268°
2026-04-15 20:58 41.98392 -87.93262 1091 ft 231 kts 268°
2026-04-15 20:58 41.98757 -87.95266 2715 ft 229 kts 293°
2026-04-15 20:58 41.99827 -87.96952 4020 ft 251 kts 319°
2026-04-15 20:59 42.01478 -87.97931 5347 ft 271 kts 345°
2026-04-15 20:59 42.03402 -87.97921 6607 ft 282 kts
2026-04-15 20:59 42.05375 -87.97603 7838 ft 289 kts
2026-04-15 20:59 42.07392 -87.97241 9073 ft 294 kts
2026-04-15 21:00 42.09443 -87.96875 10193 ft 300 kts
2026-04-15 21:00 42.11494 -87.96519 11055 ft 303 kts
2026-04-15 21:00 42.13625 -87.96165 11495 ft 315 kts
2026-04-15 21:00 42.15885 -87.95802 11682 ft 338 kts
2026-04-15 21:01 42.18304 -87.95418 11881 ft 362 kts
2026-04-15 21:01 42.20878 -87.95007 12072 ft 385 kts
2026-04-15 21:01 42.23608 -87.94570 12431 ft 401 kts
2026-04-15 21:01 42.26415 -87.94119 13127 ft 408 kts
2026-04-15 21:02 42.29251 -87.93677 13825 ft 413 kts
2026-04-15 21:02 42.32128 -87.93505 14553 ft 413 kts 353°
2026-04-15 21:02 42.34951 -87.93771 15274 ft 413 kts 349°
2026-04-15 21:02 42.37840 -87.94156 15959 ft 418 kts 348°
2026-04-15 21:03 42.40747 -87.94538 16618 ft 423 kts 348°
2026-04-15 21:03 42.43710 -87.94900 17299 ft 428 kts 348°
2026-04-15 21:03 42.46695 -87.95250 18014 ft 432 kts 348°
2026-04-15 21:03 42.49709 -87.95611 18624 ft 436 kts 348°
2026-04-15 21:04 42.52697 -87.95993 19218 ft 439 kts 347°
2026-04-15 21:04 42.55759 -87.96390 19825 ft 443 kts 347°
2026-04-15 21:04 42.58846 -87.96787 20428 ft 447 kts 347°
2026-04-15 21:04 42.61969 -87.97188 21012 ft 451 kts 347°
2026-04-15 21:05 42.65115 -87.97500 21574 ft 457 kts 349°
2026-04-15 21:05 42.68317 -87.97698 22126 ft 459 kts 348°
2026-04-15 21:05 42.71431 -87.98284 22583 ft 455 kts 339°
2026-04-15 21:05 42.74471 -87.99554 23114 ft 450 kts 330°
2026-04-15 21:06 42.77284 -88.01349 23642 ft 443 kts 322°
2026-04-15 21:06 42.79952 -88.03465 24087 ft 445 kts 321°
2026-04-15 21:06 42.82593 -88.05577 24534 ft 448 kts 321°
2026-04-15 21:06 42.85300 -88.07729 24989 ft 451 kts 321°
2026-04-15 21:07 42.88033 -88.09883 25425 ft 455 kts 321°
2026-04-15 21:07 42.90792 -88.12044 25869 ft 459 kts 321°
2026-04-15 21:07 42.93570 -88.14212 26288 ft 462 kts 322°
2026-04-15 21:07 42.96377 -88.16401 26704 ft 465 kts 322°
2026-04-15 21:08 42.99190 -88.18597 27104 ft 468 kts 321°
2026-04-15 21:08 43.02029 -88.20816 27492 ft 471 kts 321°
2026-04-15 21:08 43.04888 -88.23054 27889 ft 474 kts 321°
2026-04-15 21:08 43.07737 -88.25328 28232 ft 472 kts 318°
2026-04-15 21:09 43.10268 -88.28119 28516 ft 461 kts 306°
2026-04-15 21:09 43.12270 -88.31428 28861 ft 453 kts 297°
2026-04-15 21:09 43.13850 -88.35113 29210 ft 444 kts 287°
2026-04-15 21:09 43.15017 -88.39008 29468 ft 443 kts 285°
2026-04-15 21:10 43.16157 -88.42943 29716 ft 446 kts 285°
2026-04-15 21:10 43.17310 -88.46916 29989 ft 449 kts 285°
2026-04-15 21:10 43.18472 -88.50883 30294 ft 448 kts 285°
2026-04-15 21:10 43.19640 -88.54833 30745 ft 445 kts 285°
2026-04-15 21:11 43.20806 -88.58749 31217 ft 441 kts 284°
2026-04-15 21:11 43.21961 -88.62626 31626 ft 439 kts 284°
2026-04-15 21:11 43.23120 -88.66518 31989 ft 437 kts 284°
2026-04-15 21:11 43.24251 -88.70320 32341 ft 436 kts 284°
2026-04-15 21:12 43.25397 -88.74180 32713 ft 434 kts 283°
2026-04-15 21:12 43.27678 -88.81896 32849 ft 437 kts 283°
2026-04-15 21:13 43.29953 -88.89595 32847 ft 431 kts 283°
2026-04-15 21:13 43.32184 -88.97173 32845 ft 430 kts 283°
2026-04-15 21:14 43.34420 -89.04799 32833 ft 430 kts 283°
2026-04-15 21:14 43.36651 -89.12430 32830 ft 430 kts 282°
2026-04-15 21:15 43.38865 -89.20024 32839 ft 431 kts 282°
2026-04-15 21:15 43.41093 -89.27687 32840 ft 431 kts 282°
2026-04-15 21:16 43.43318 -89.35359 32831 ft 432 kts 282°
2026-04-15 21:16 43.45544 -89.43059 32832 ft 432 kts 282°
2026-04-15 21:17 43.47756 -89.50737 32833 ft 432 kts 281°
2026-04-15 21:17 43.49966 -89.58378 32834 ft 432 kts 284°
2026-04-15 21:17 43.51589 -89.61987 32833 ft 457 kts 299°
2026-04-15 21:18 43.53998 -89.65020 32844 ft 482 kts 313°
2026-04-15 21:18 43.57009 -89.67295 32845 ft 506 kts 327°
2026-04-15 21:18 43.60478 -89.68603 32828 ft 528 kts 342°
2026-04-15 21:18 43.64224 -89.68587 32824 ft 550 kts
2026-04-15 21:19 43.67888 -89.67050 32823 ft 567 kts 20°
2026-04-15 21:19 43.74781 -89.61522 32841 ft 578 kts 28°
2026-04-15 21:20 43.81584 -89.55470 32835 ft 582 kts 28°
2026-04-15 21:20 43.88487 -89.49621 32819 ft 580 kts 26°
2026-04-15 21:21 43.94276 -89.44927 32836 ft 578 kts 25°
2026-04-15 21:21 44.01243 -89.39343 32821 ft 577 kts 25°
2026-04-15 21:22 44.08182 -89.33746 32833 ft 576 kts 25°
2026-04-15 21:22 44.15107 -89.28113 32832 ft 575 kts 25°
2026-04-15 21:23 44.21970 -89.22504 32863 ft 575 kts 25°
2026-04-15 21:23 44.28886 -89.16841 32871 ft 576 kts 25°
2026-04-15 21:24 44.35815 -89.11154 32880 ft 578 kts 25°
2026-04-15 21:24 44.42761 -89.05436 32881 ft 580 kts 25°
2026-04-15 21:25 44.49679 -88.99726 32874 ft 581 kts 25°
2026-04-15 21:25 44.56665 -88.93942 32868 ft 582 kts 25°
2026-04-15 21:26 44.63651 -88.88142 32857 ft 582 kts 25°
2026-04-15 21:26 44.70618 -88.82341 32868 ft 582 kts 25°
2026-04-15 21:27 44.77534 -88.76567 32842 ft 581 kts 25°
2026-04-15 21:27 44.84498 -88.70736 32841 ft 580 kts 25°
2026-04-15 21:28 44.91428 -88.64917 32853 ft 579 kts 25°
2026-04-15 21:28 44.98354 -88.59087 32848 ft 579 kts 25°
2026-04-15 21:29 45.05229 -88.53283 32854 ft 579 kts 25°
2026-04-15 21:29 45.12148 -88.47424 32855 ft 579 kts 25°
2026-04-15 21:30 45.19066 -88.41551 32854 ft 580 kts 25°
2026-04-15 21:30 45.25953 -88.35686 32869 ft 581 kts 25°
2026-04-15 21:31 45.36359 -88.26792 32855 ft 582 kts 25°
2026-04-15 21:32 45.46783 -88.17843 32851 ft 583 kts 25°
2026-04-15 21:32 45.53695 -88.11887 32844 ft 583 kts 25°
2026-04-15 21:33 45.60638 -88.05888 32839 ft 583 kts 24°
2026-04-15 21:33 45.67581 -87.99871 32830 ft 583 kts 24°
2026-04-15 21:34 45.74518 -87.93841 32816 ft 582 kts 24°
2026-04-15 21:34 45.81388 -87.87852 32821 ft 581 kts 24°
2026-04-15 21:35 45.88300 -87.81809 32828 ft 580 kts 24°
2026-04-15 21:35 45.95197 -87.75762 32837 ft 580 kts 24°
2026-04-15 21:36 46.02081 -87.69708 32841 ft 579 kts 24°
2026-04-15 21:36 46.08906 -87.63687 32841 ft 579 kts 24°
2026-04-15 21:37 46.15772 -87.57614 32841 ft 578 kts 24°
2026-04-15 21:37 46.22622 -87.51534 32841 ft 577 kts 24°
2026-04-15 21:38 46.29461 -87.45444 32842 ft 577 kts 25°
2026-04-15 21:38 46.35868 -87.38285 32850 ft 587 kts 38°
2026-04-15 21:39 46.41356 -87.29530 32850 ft 593 kts 51°
2026-04-15 21:39 46.46236 -87.19866 32853 ft 593 kts 52°
2026-04-15 21:40 46.51063 -87.10168 32863 ft 592 kts 51°
2026-04-15 21:40 46.55908 -87.00567 32876 ft 592 kts 51°
2026-04-15 21:41 46.60803 -86.90939 32884 ft 591 kts 51°
2026-04-15 21:41 46.65698 -86.81294 32883 ft 591 kts 51°
2026-04-15 21:42 46.70567 -86.71646 32885 ft 591 kts 51°
2026-04-15 21:42 46.75420 -86.61985 32885 ft 590 kts 51°
2026-04-15 21:43 46.80262 -86.52309 32882 ft 589 kts 51°
2026-04-15 21:43 46.85055 -86.42703 32882 ft 588 kts 51°
2026-04-15 21:44 46.89875 -86.33010 32883 ft 588 kts 51°
2026-04-15 21:44 46.94687 -86.23299 32893 ft 588 kts 51°
2026-04-15 21:45 46.99481 -86.13591 32895 ft 587 kts 51°
2026-04-15 21:45 47.04234 -86.03931 32887 ft 587 kts 51°
2026-04-15 21:46 47.09009 -85.94192 32887 ft 587 kts 51°
2026-04-15 21:46 47.13773 -85.84442 32881 ft 587 kts 51°
2026-04-15 21:47 47.18521 -85.74688 32880 ft 587 kts 51°
2026-04-15 21:47 47.23235 -85.64972 32886 ft 586 kts 51°
2026-04-15 21:48 47.27964 -85.55192 32881 ft 586 kts 51°
2026-04-15 21:48 47.32694 -85.45372 32886 ft 586 kts 51°
2026-04-15 21:49 47.37413 -85.35540 32893 ft 586 kts 51°
2026-04-15 21:49 47.42097 -85.25748 32888 ft 586 kts 51°
2026-04-15 21:50 47.46789 -85.15903 32888 ft 586 kts 51°
2026-04-15 21:50 47.51476 -85.06034 32885 ft 585 kts 51°
2026-04-15 21:51 47.56120 -84.96218 32883 ft 585 kts 51°
2026-04-15 21:51 47.60782 -84.86331 32880 ft 585 kts 51°
2026-04-15 21:52 47.65435 -84.76428 32872 ft 584 kts 52°
2026-04-15 21:52 47.70069 -84.66528 32857 ft 584 kts 52°
2026-04-15 21:53 47.74699 -84.56602 32851 ft 584 kts 52°
2026-04-15 21:53 47.79285 -84.46731 32856 ft 584 kts 52°
2026-04-15 21:54 47.83897 -84.36772 32848 ft 583 kts 52°
2026-04-15 21:54 47.88492 -84.26809 32854 ft 583 kts 52°
2026-04-15 21:55 47.93050 -84.16895 32857 ft 582 kts 52°
2026-04-15 21:55 47.97424 -84.06745 32847 ft 584 kts 62°
2026-04-15 21:56 48.00114 -83.95285 32881 ft 585 kts 79°
2026-04-15 21:56 48.00940 -83.83280 32894 ft 581 kts 90°
2026-04-15 21:57 48.01273 -83.71201 32870 ft 582 kts 91°
2026-04-15 21:57 48.01649 -83.59111 32875 ft 583 kts 90°
2026-04-15 21:58 48.02085 -83.47073 32879 ft 585 kts 89°
2026-04-15 21:58 48.02536 -83.34933 32866 ft 586 kts 90°
2026-04-15 21:59 48.02973 -83.22755 32868 ft 586 kts 90°
2026-04-15 21:59 48.03387 -83.10577 32877 ft 586 kts 90°
2026-04-15 22:00 48.03786 -82.98397 32889 ft 586 kts 90°
2026-04-15 22:00 48.04170 -82.86300 32888 ft 587 kts 90°
2026-04-15 22:01 48.04545 -82.74099 32893 ft 587 kts 90°
2026-04-15 22:01 48.04907 -82.61921 32894 ft 587 kts 90°
2026-04-15 22:02 48.05257 -82.49714 32895 ft 587 kts 90°
2026-04-15 22:02 48.05594 -82.37498 32893 ft 587 kts 90°
2026-04-15 22:03 48.05917 -82.25279 32885 ft 588 kts 90°
2026-04-15 22:03 48.06226 -82.13126 32892 ft 589 kts 90°
2026-04-15 22:04 48.06526 -82.00890 32906 ft 589 kts 90°
2026-04-15 22:04 48.06812 -81.88616 32896 ft 590 kts 90°
2026-04-15 22:05 48.07085 -81.76349 32890 ft 590 kts 90°
2026-04-15 22:05 48.07344 -81.64089 32894 ft 589 kts 90°
2026-04-15 22:06 48.07590 -81.51907 32894 ft 589 kts 90°
2026-04-15 22:06 48.07824 -81.39662 32890 ft 589 kts 90°
2026-04-15 22:07 48.08044 -81.27402 32903 ft 589 kts 90°
2026-04-15 22:07 48.08217 -81.17222 32894 ft 589 kts 90°
2026-04-15 22:08 48.08414 -81.04978 32897 ft 589 kts 90°
2026-04-15 22:08 48.08597 -80.92753 32889 ft 588 kts 90°
2026-04-15 22:09 48.08768 -80.80500 32897 ft 588 kts 90°
2026-04-15 22:09 48.08924 -80.68334 32896 ft 588 kts 90°
2026-04-15 22:10 48.09069 -80.56077 32897 ft 588 kts 90°
2026-04-15 22:10 48.09201 -80.43845 32895 ft 588 kts 90°
2026-04-15 22:11 48.09319 -80.31608 32900 ft 588 kts 90°
2026-04-15 22:11 48.09424 -80.19450 32897 ft 587 kts 90°
2026-04-15 22:12 48.09517 -80.07226 32897 ft 587 kts 90°
2026-04-15 22:12 48.09596 -79.95015 32894 ft 586 kts 90°
2026-04-15 22:13 48.09662 -79.82825 32899 ft 586 kts 90°
2026-04-15 22:13 48.09716 -79.70626 32908 ft 585 kts 90°
2026-04-15 22:14 48.09756 -79.58534 32916 ft 585 kts 90°
2026-04-15 22:14 48.09784 -79.46346 32917 ft 585 kts 90°
2026-04-15 22:15 48.09799 -79.34169 32923 ft 585 kts 90°
2026-04-15 22:15 48.09801 -79.21984 32920 ft 585 kts 91°
2026-04-15 22:16 48.09790 -79.09870 32920 ft 585 kts 91°
2026-04-15 22:16 48.09767 -78.97689 32915 ft 585 kts 91°
2026-04-15 22:17 48.09730 -78.85491 32914 ft 585 kts 91°
2026-04-15 22:17 48.09681 -78.73389 32912 ft 585 kts 91°
2026-04-15 22:18 48.09619 -78.61220 32921 ft 584 kts 91°
2026-04-15 22:18 48.09544 -78.49059 32923 ft 584 kts 91°
2026-04-15 22:19 48.09457 -78.36908 32940 ft 583 kts 91°
2026-04-15 22:19 48.09356 -78.24783 32933 ft 583 kts 91°
2026-04-15 22:20 48.09244 -78.12733 32934 ft 582 kts 91°
2026-04-15 22:20 48.09119 -78.00620 32923 ft 582 kts 91°
2026-04-15 22:21 48.08981 -77.88517 32920 ft 582 kts 91°
2026-04-15 22:21 48.08829 -77.76381 32917 ft 582 kts 91°
2026-04-15 22:22 48.08667 -77.64365 32920 ft 581 kts 91°
2026-04-15 22:22 48.08491 -77.52272 32923 ft 581 kts 91°
2026-04-15 22:23 48.08298 -77.40174 32939 ft 580 kts 92°
2026-04-15 22:23 48.07746 -77.28145 32945 ft 580 kts 96°
2026-04-15 22:24 48.07030 -77.16129 32956 ft 579 kts 96°
2026-04-15 22:24 48.06313 -77.04192 32950 ft 581 kts 96°
2026-04-15 22:25 48.05610 -76.92142 32971 ft 583 kts 96°
2026-04-15 22:25 48.04904 -76.80025 32960 ft 585 kts 96°
2026-04-15 22:26 48.04185 -76.67886 32963 ft 586 kts 96°
2026-04-15 22:26 48.03449 -76.55741 32957 ft 585 kts 96°
2026-04-15 22:27 48.02707 -76.43715 32957 ft 584 kts 96°
2026-04-15 22:27 48.01946 -76.31626 32955 ft 583 kts 96°
2026-04-15 22:28 48.01176 -76.19591 32955 ft 582 kts 96°
2026-04-15 22:28 48.00396 -76.07570 32957 ft 581 kts 96°
2026-04-15 22:29 47.99602 -75.95563 32963 ft 580 kts 97°
2026-04-15 22:29 47.98798 -75.83582 32952 ft 580 kts 97°
2026-04-15 22:30 47.97987 -75.71679 32966 ft 580 kts 97°
2026-04-15 22:30 47.97155 -75.59663 32960 ft 580 kts 97°
2026-04-15 22:31 47.96317 -75.47740 32970 ft 580 kts 97°
2026-04-15 22:31 47.95460 -75.35738 32961 ft 580 kts 97°
2026-04-15 22:32 47.94594 -75.23762 32961 ft 580 kts 97°
2026-04-15 22:32 47.93714 -75.11787 32961 ft 580 kts 97°
2026-04-15 22:33 47.92823 -74.99835 32961 ft 580 kts 97°
2026-04-15 22:33 47.91924 -74.87937 32955 ft 580 kts 98°
2026-04-15 22:34 47.91008 -74.75994 32962 ft 579 kts 98°
2026-04-15 22:34 47.90080 -74.64061 32960 ft 579 kts 98°
2026-04-15 22:35 47.89141 -74.52142 32970 ft 578 kts 98°
2026-04-15 22:35 47.88196 -74.40296 32965 ft 578 kts 98°
2026-04-15 22:36 47.87234 -74.28402 32974 ft 578 kts 98°
2026-04-15 22:36 47.86259 -74.16519 32973 ft 577 kts 98°
2026-04-15 22:37 47.85274 -74.04656 32985 ft 577 kts 98°
2026-04-15 22:37 47.84282 -73.92856 32982 ft 577 kts 98°
2026-04-15 22:38 47.83274 -73.81014 32996 ft 576 kts 98°
2026-04-15 22:38 47.82254 -73.69188 32984 ft 576 kts 98°
2026-04-15 22:39 47.81222 -73.57352 32994 ft 576 kts 99°
2026-04-15 22:39 47.80183 -73.45603 32992 ft 575 kts 99°
2026-04-15 22:40 47.79128 -73.33803 32998 ft 575 kts 99°
2026-04-15 22:40 47.78064 -73.22029 32995 ft 575 kts 99°
2026-04-15 22:41 47.76442 -73.04371 33002 ft 573 kts 99°
2026-04-15 22:41 47.75348 -72.92616 33000 ft 573 kts 99°
2026-04-15 22:42 47.74252 -72.80975 33004 ft 573 kts 99°
2026-04-15 22:42 47.73136 -72.69247 33004 ft 572 kts 99°
2026-04-15 22:43 47.72010 -72.57551 32992 ft 572 kts 99°
2026-04-15 22:43 47.70872 -72.45861 32996 ft 571 kts 99°
2026-04-15 22:44 47.69723 -72.34191 33000 ft 571 kts 100°
2026-04-15 22:44 47.68563 -72.22529 32991 ft 570 kts 100°
2026-04-15 22:45 47.67394 -72.10886 32996 ft 570 kts 100°
2026-04-15 22:45 47.66219 -71.99324 32978 ft 571 kts 100°
2026-04-15 22:46 47.65024 -71.87699 32984 ft 569 kts 100°
2026-04-15 22:46 47.63824 -71.76101 32983 ft 568 kts 100°
2026-04-15 22:47 47.62612 -71.64517 32980 ft 568 kts 100°
2026-04-15 22:47 47.61395 -71.53017 32970 ft 568 kts 100°
2026-04-15 22:48 47.60159 -71.41444 32979 ft 568 kts 101°
2026-04-15 22:48 47.58911 -71.29875 32969 ft 568 kts 101°
2026-04-15 22:49 47.57651 -71.18311 32975 ft 568 kts 101°
2026-04-15 22:49 47.56380 -71.06752 32975 ft 568 kts 101°
2026-04-15 22:50 47.55103 -70.95250 32984 ft 568 kts 101°
2026-04-15 22:50 47.53808 -70.83700 32993 ft 569 kts 101°
2026-04-15 22:51 47.52504 -70.72173 33010 ft 568 kts 101°
2026-04-15 22:51 47.51194 -70.60688 33015 ft 567 kts 101°
2026-04-15 22:52 47.50071 -70.49137 33036 ft 567 kts 95°
2026-04-15 22:52 47.50099 -70.37460 33054 ft 568 kts 85°
2026-04-15 22:53 47.50646 -70.25794 33046 ft 568 kts 85°
2026-04-15 22:53 47.51147 -70.14198 33054 ft 568 kts 86°
2026-04-15 22:54 47.51586 -70.02527 33053 ft 568 kts 86°
2026-04-15 22:54 47.51932 -69.92810 33055 ft 568 kts 86°
2026-04-15 22:55 47.52407 -69.79223 33072 ft 572 kts 86°
2026-04-15 22:55 47.52748 -69.69280 33072 ft 582 kts 86°
2026-04-15 22:56 47.53147 -69.57339 33055 ft 585 kts 86°
2026-04-15 22:56 47.53536 -69.45305 33043 ft 584 kts 86°
2026-04-15 22:57 47.53881 -69.33289 33038 ft 582 kts 90°
2026-04-15 22:57 47.52955 -69.21480 33039 ft 577 kts 105°
2026-04-15 22:58 47.50470 -69.10374 33036 ft 568 kts 118°
2026-04-15 22:58 47.47228 -68.99720 33030 ft 567 kts 118°
2026-04-15 22:59 47.43997 -68.89089 33040 ft 567 kts 118°
2026-04-15 22:59 47.40814 -68.78422 33037 ft 568 kts 118°
2026-04-15 23:00 47.39225 -68.73066 32892 ft 570 kts 117°
2026-04-15 23:00 47.37621 -68.67671 32968 ft 576 kts 117°
2026-04-15 23:00 47.34376 -68.56813 33010 ft 588 kts 117°
2026-04-15 23:01 47.31041 -68.45707 33003 ft 592 kts 117°
2026-04-15 23:01 47.27703 -68.34633 32999 ft 590 kts 117°
2026-04-15 23:02 47.24368 -68.23624 33018 ft 587 kts 117°
2026-04-15 23:02 47.21034 -68.12675 33024 ft 584 kts 117°
2026-04-15 23:03 47.17707 -68.01799 33037 ft 582 kts 117°
2026-04-15 23:03 47.14388 -67.90998 33040 ft 584 kts 117°
2026-04-15 23:04 47.11036 -67.80132 33042 ft 584 kts 117°
2026-04-15 23:04 47.07672 -67.69272 33043 ft 584 kts 117°
2026-04-15 23:05 47.04301 -67.58435 33037 ft 583 kts 117°
2026-04-15 23:05 47.00924 -67.47627 33037 ft 583 kts 117°
2026-04-15 23:06 46.97543 -67.36854 33031 ft 581 kts 117°
2026-04-15 23:06 46.94156 -67.26105 33032 ft 581 kts 117°
2026-04-15 23:07 46.90765 -67.15378 33044 ft 579 kts 117°
2026-04-15 23:07 46.89368 -67.09862 33023 ft 582 kts 105°
2026-04-15 23:07 46.88700 -67.04036 33053 ft 581 kts 93°
2026-04-15 23:08 46.88671 -66.98144 33051 ft 579 kts 82°
2026-04-15 23:08 46.89307 -66.92438 33042 ft 570 kts 70°
2026-04-15 23:08 46.91432 -66.81249 33055 ft 572 kts 70°
2026-04-15 23:09 46.93535 -66.69992 33062 ft 575 kts 70°
2026-04-15 23:09 46.95552 -66.58625 33063 ft 577 kts 71°
2026-04-15 23:10 46.97522 -66.47209 33046 ft 578 kts 71°
2026-04-15 23:10 46.99469 -66.35840 33061 ft 579 kts 71°
2026-04-15 23:11 47.01424 -66.24401 33066 ft 579 kts 71°
2026-04-15 23:11 47.03376 -66.12936 33085 ft 579 kts 71°
2026-04-15 23:12 47.05306 -66.01528 33088 ft 578 kts 71°
2026-04-15 23:12 47.07236 -65.90042 33083 ft 579 kts 71°
2026-04-15 23:13 47.09153 -65.78554 33093 ft 580 kts 71°
2026-04-15 23:13 47.11061 -65.67039 33090 ft 581 kts 71°
2026-04-15 23:14 47.12952 -65.55549 33085 ft 582 kts 71°
2026-04-15 23:14 47.14846 -65.43959 33091 ft 582 kts 71°
2026-04-15 23:15 47.16727 -65.32376 33089 ft 583 kts 71°
2026-04-15 23:15 47.18589 -65.20823 33074 ft 584 kts 71°
2026-04-15 23:16 47.20456 -65.09167 33070 ft 585 kts 71°
2026-04-15 23:16 47.22314 -64.97478 33068 ft 586 kts 71°
2026-04-15 23:17 47.24146 -64.85866 33063 ft 586 kts 71°
2026-04-15 23:17 47.25987 -64.74120 33069 ft 587 kts 71°
2026-04-15 23:18 47.27799 -64.62474 33069 ft 587 kts 71°
2026-04-15 23:18 47.29612 -64.50741 33069 ft 587 kts 71°
2026-04-15 23:19 47.31419 -64.38957 33051 ft 588 kts 71°
2026-04-15 23:19 47.33203 -64.27238 33065 ft 588 kts 71°
2026-04-15 23:20 47.34981 -64.15469 33066 ft 588 kts 71°
2026-04-15 23:20 47.36750 -64.03673 33071 ft 588 kts 72°
2026-04-15 23:21 47.38506 -63.91877 33069 ft 587 kts 72°
2026-04-15 23:21 47.40236 -63.80162 33069 ft 586 kts 72°
2026-04-15 23:22 47.41960 -63.68400 33064 ft 585 kts 72°
2026-04-15 23:22 47.43663 -63.56693 33065 ft 584 kts 72°
2026-04-15 23:23 47.45359 -63.44951 33068 ft 583 kts 72°
2026-04-15 23:23 47.47040 -63.33216 33070 ft 582 kts 72°
2026-04-15 23:24 47.48707 -63.21488 33068 ft 581 kts 72°
2026-04-15 23:24 47.50352 -63.09828 33072 ft 580 kts 72°
2026-04-15 23:25 47.51980 -62.98197 33074 ft 579 kts 72°
2026-04-15 23:25 47.53606 -62.86510 33079 ft 578 kts 72°
2026-04-15 23:26 47.55209 -62.74866 33085 ft 577 kts 73°
2026-04-15 23:26 47.56793 -62.63256 33085 ft 577 kts 73°
2026-04-15 23:27 47.58373 -62.51596 33088 ft 576 kts 73°
2026-04-15 23:27 47.59936 -62.39979 33088 ft 576 kts 73°
2026-04-15 23:28 47.61488 -62.28350 33096 ft 575 kts 73°
2026-04-15 23:28 47.63026 -62.16721 33094 ft 575 kts 73°
2026-04-15 23:29 47.64558 -62.05048 33095 ft 575 kts 73°
2026-04-15 23:29 47.66070 -61.93428 33098 ft 574 kts 73°
2026-04-15 23:30 47.67567 -61.81828 33104 ft 574 kts 73°
2026-04-15 23:30 47.69062 -61.70143 33105 ft 574 kts 73°
2026-04-15 23:31 47.70533 -61.58551 33109 ft 574 kts 74°
2026-04-15 23:31 47.71996 -61.46918 33113 ft 574 kts 74°
2026-04-15 23:32 47.73448 -61.35271 33117 ft 573 kts 74°
2026-04-15 23:32 47.74887 -61.23632 33122 ft 572 kts 74°
2026-04-15 23:33 47.76305 -61.12060 33122 ft 572 kts 74°
2026-04-15 23:33 47.77717 -61.00423 33118 ft 571 kts 74°
2026-04-15 23:34 47.79113 -60.88822 33122 ft 570 kts 74°
2026-04-15 23:36 47.83890 -60.48353 33137 ft 567 kts 75°
2026-04-15 23:36 47.85228 -60.36781 33141 ft 567 kts 75°
2026-04-15 23:37 47.86555 -60.25191 33146 ft 566 kts 75°
2026-04-15 23:37 47.87860 -60.13692 33149 ft 566 kts 75°
2026-04-15 23:38 47.89159 -60.02135 33147 ft 565 kts 75°
2026-04-15 23:38 47.90449 -59.90553 33152 ft 565 kts 75°
2026-04-15 23:39 47.91727 -59.78968 33161 ft 565 kts 75°
2026-04-15 23:39 47.92986 -59.67437 33155 ft 565 kts 75°
2026-04-15 23:40 47.94230 -59.55943 33162 ft 564 kts 75°
2026-04-15 23:40 47.95468 -59.44383 33163 ft 564 kts 76°
2026-04-15 23:41 47.96695 -59.32816 33167 ft 563 kts 76°
2026-04-15 23:41 47.97705 -59.23213 33171 ft 563 kts 76°
2026-04-15 23:42 47.99103 -59.09766 33178 ft 563 kts 76°
2026-04-15 23:42 48.00101 -59.00082 33180 ft 562 kts 76°
2026-04-15 23:43 48.01272 -58.88608 33192 ft 561 kts 76°
2026-04-15 23:43 48.02437 -58.77068 33187 ft 561 kts 76°
2026-04-15 23:44 48.03592 -58.65509 33198 ft 561 kts 76°
2026-04-15 23:44 48.04727 -58.54036 33200 ft 560 kts 77°
2026-04-15 23:45 48.05855 -58.42521 33198 ft 560 kts 77°
2026-04-15 23:45 48.06970 -58.30998 33206 ft 559 kts 77°
2026-04-15 23:46 48.08074 -58.19471 33207 ft 558 kts 77°
2026-04-15 23:46 48.09158 -58.08027 33212 ft 557 kts 77°
2026-04-15 23:47 48.10235 -57.96541 33207 ft 556 kts 77°
2026-04-15 23:47 48.11297 -57.85079 33208 ft 555 kts 78°
2026-04-15 23:48 48.12341 -57.73678 33216 ft 554 kts 78°
2026-04-15 23:48 48.13378 -57.62244 33215 ft 553 kts 78°
2026-04-15 23:49 48.14402 -57.50809 33215 ft 552 kts 78°
2026-04-15 23:49 48.15405 -57.39487 33220 ft 551 kts 78°
2026-04-15 23:50 48.16402 -57.28102 33220 ft 550 kts 78°
2026-04-15 23:50 48.17387 -57.16731 33205 ft 550 kts 78°
2026-04-15 23:51 48.18838 -56.99705 33206 ft 548 kts 79°
2026-04-15 23:51 48.19784 -56.88443 33199 ft 547 kts 79°
2026-04-15 23:52 48.20724 -56.77121 33186 ft 546 kts 79°
2026-04-15 23:52 48.21651 -56.65808 33177 ft 545 kts 79°
2026-04-15 23:53 48.22560 -56.54582 33178 ft 545 kts 79°
2026-04-15 23:53 48.23464 -56.43285 33179 ft 545 kts 79°
2026-04-15 23:54 48.24356 -56.31986 33178 ft 545 kts 79°
2026-04-15 23:54 48.25238 -56.20672 33179 ft 545 kts 79°
2026-04-15 23:55 48.26107 -56.09378 33174 ft 545 kts 80°
2026-04-15 23:55 48.26964 -55.98086 33177 ft 544 kts 80°
2026-04-15 23:56 48.27806 -55.86855 33181 ft 544 kts 80°
2026-04-15 23:56 48.28641 -55.75560 33179 ft 543 kts 80°
2026-04-15 23:57 48.29464 -55.64272 33190 ft 543 kts 80°
2026-04-15 23:57 48.30272 -55.53047 33185 ft 543 kts 80°
2026-04-15 23:58 48.31071 -55.41779 33193 ft 542 kts 80°
2026-04-15 23:58 48.31860 -55.30495 33196 ft 542 kts 81°
2026-04-15 23:59 48.32639 -55.19202 33202 ft 542 kts 81°
2026-04-15 23:59 48.33400 -55.07998 33210 ft 542 kts 81°
2026-04-16 00:00 48.34156 -54.96703 33213 ft 542 kts 81°
2026-04-16 00:00 48.34901 -54.85412 33215 ft 541 kts 81°
2026-04-16 00:01 48.35628 -54.74210 33230 ft 541 kts 81°
2026-04-16 00:01 48.36350 -54.62928 33233 ft 541 kts 81°
2026-04-16 00:02 48.37057 -54.51701 33234 ft 541 kts 81°
2026-04-16 00:02 48.37755 -54.40438 33242 ft 540 kts 81°
2026-04-16 00:03 48.38441 -54.29181 33244 ft 540 kts 82°
2026-04-16 00:03 48.39117 -54.17919 33246 ft 540 kts 82°
2026-04-16 00:04 48.39782 -54.06666 33253 ft 539 kts 82°
2026-04-16 00:04 48.40435 -53.95406 33247 ft 539 kts 82°
2026-04-16 00:05 48.41071 -53.84248 33247 ft 538 kts 82°
2026-04-16 00:05 48.41699 -53.73033 33250 ft 537 kts 82°
2026-04-16 00:06 48.42320 -53.61777 33529 ft 540 kts 82°
2026-04-16 00:06 48.42625 -53.56146 33887 ft 539 kts 82°
2026-04-16 00:06 48.42928 -53.50524 34223 ft 538 kts 82°
2026-04-16 00:07 48.43227 -53.44901 34472 ft 539 kts 82°
2026-04-16 00:07 48.43524 -53.39283 34711 ft 539 kts 82°
2026-04-16 00:07 48.43819 -53.33644 34951 ft 539 kts 82°
2026-04-16 00:07 48.44112 -53.28009 35162 ft 540 kts 82°
2026-04-16 00:08 48.44693 -53.16653 35261 ft 544 kts 82°
2026-04-16 00:08 48.45258 -53.05346 35256 ft 539 kts 82°
2026-04-16 00:09 48.45806 -52.94171 35265 ft 536 kts 83°
2026-04-16 00:09 48.46346 -52.82958 35274 ft 535 kts 83°
2026-04-16 00:10 48.46876 -52.71752 35280 ft 536 kts 83°
2026-04-16 00:10 48.47393 -52.60566 35277 ft 537 kts 83°
2026-04-16 00:11 48.47899 -52.49377 35286 ft 538 kts 83°
2026-04-16 00:11 48.48397 -52.38094 35281 ft 539 kts 83°
2026-04-16 00:12 48.48885 -52.26820 35284 ft 539 kts 83°
2026-04-16 00:12 48.49361 -52.15572 35278 ft 539 kts 83°
2026-04-16 00:13 48.49967 -52.04333 35281 ft 536 kts 77°
2026-04-16 00:13 48.51645 -51.93436 35290 ft 529 kts 68°
2026-04-16 00:14 48.54258 -51.83164 35284 ft 525 kts 63°
2026-04-16 00:14 48.56974 -51.72964 35285 ft 525 kts 64°
2026-04-16 00:15 48.59655 -51.62706 35279 ft 525 kts 64°
2026-04-16 00:15 48.62293 -51.52437 35284 ft 525 kts 64°
2026-04-16 00:16 48.64920 -51.42130 35286 ft 524 kts 64°
2026-04-16 00:16 48.67533 -51.31838 35282 ft 524 kts 64°
2026-04-16 00:17 48.70127 -51.21583 35291 ft 524 kts 65°
2026-04-16 00:17 48.72734 -51.11236 35280 ft 523 kts 65°
2026-04-16 00:18 48.75262 -51.01153 35288 ft 523 kts 65°
2026-04-16 00:18 48.77790 -50.91024 35287 ft 523 kts 65°
2026-04-16 00:19 48.80348 -50.80731 35282 ft 523 kts 65°
2026-04-16 00:19 48.82906 -50.70388 35282 ft 523 kts 65°
2026-04-16 00:20 48.85442 -50.60086 35286 ft 523 kts 65°
2026-04-16 00:20 48.87985 -50.49710 35285 ft 523 kts 65°
2026-04-16 00:21 48.90498 -50.39408 35281 ft 523 kts 65°
2026-04-16 00:21 48.93015 -50.29037 35280 ft 522 kts 66°
2026-04-16 00:22 48.95525 -50.18648 35285 ft 522 kts 66°
2026-04-16 00:22 48.98025 -50.08256 35278 ft 522 kts 66°
2026-04-16 00:23 49.00380 -49.97845 35281 ft 524 kts 71°
2026-04-16 00:23 49.02001 -49.86984 35283 ft 526 kts 75°
2026-04-16 00:24 49.03497 -49.76117 35274 ft 526 kts 75°
2026-04-16 00:24 49.05018 -49.65198 35274 ft 526 kts 75°
2026-04-16 00:25 49.06562 -49.54274 35269 ft 525 kts 74°
2026-04-16 00:25 49.08095 -49.43435 35266 ft 525 kts 75°
2026-04-16 00:26 49.09626 -49.32533 35268 ft 525 kts 75°
2026-04-16 00:26 49.11142 -49.21628 35268 ft 524 kts 75°
2026-04-16 00:27 49.12636 -49.10804 35263 ft 524 kts 75°
2026-04-16 00:27 49.14121 -48.99955 35263 ft 524 kts 75°
2026-04-16 00:28 49.15604 -48.89053 35260 ft 524 kts 75°
2026-04-16 00:28 49.16827 -48.79990 35260 ft 523 kts 75°
2026-04-16 00:29 49.18291 -48.69069 35257 ft 523 kts 75°
2026-04-16 00:29 49.19735 -48.58218 35260 ft 523 kts 75°
2026-04-16 00:30 49.21176 -48.47306 35251 ft 523 kts 75°
2026-04-16 00:30 49.22598 -48.36452 35255 ft 522 kts 75°
2026-04-16 00:31 49.24017 -48.25535 35252 ft 522 kts 75°
2026-04-16 00:31 49.25421 -48.14650 35248 ft 522 kts 76°
2026-04-16 00:32 49.26822 -48.03700 35247 ft 522 kts 76°
2026-04-16 00:32 49.28203 -47.92829 35246 ft 522 kts 76°
2026-04-16 00:33 49.29578 -47.81905 35241 ft 522 kts 76°
2026-04-16 00:33 49.30937 -47.71030 35242 ft 522 kts 76°
2026-04-16 00:34 49.32293 -47.60091 35238 ft 522 kts 76°
2026-04-16 00:34 49.33637 -47.49156 35234 ft 522 kts 76°
2026-04-16 00:35 49.34974 -47.38190 35233 ft 522 kts 76°
2026-04-16 00:35 49.36294 -47.27269 35232 ft 522 kts 76°
2026-04-16 00:36 49.37608 -47.16309 35230 ft 522 kts 76°
2026-04-16 00:36 49.38914 -47.05325 35228 ft 522 kts 76°
2026-04-16 00:37 49.40203 -46.94385 35228 ft 522 kts 76°
2026-04-16 00:37 49.41479 -46.83474 35219 ft 522 kts 77°
2026-04-16 00:38 49.42754 -46.72464 35222 ft 522 kts 77°
2026-04-16 00:38 49.44014 -46.61497 35216 ft 522 kts 77°
2026-04-16 00:39 49.45267 -46.50488 35211 ft 522 kts 77°
2026-04-16 00:39 49.46504 -46.39526 35209 ft 522 kts 77°
2026-04-16 00:40 49.47738 -46.28497 35214 ft 522 kts 77°
2026-04-16 00:40 49.48952 -46.17540 35206 ft 522 kts 77°
2026-04-16 00:41 49.50157 -46.06575 35206 ft 522 kts 77°
2026-04-16 00:41 49.51356 -45.95554 35198 ft 522 kts 77°
2026-04-16 00:42 49.52546 -45.84520 35203 ft 522 kts 77°
2026-04-16 00:42 49.53719 -45.73540 35195 ft 521 kts 78°
2026-04-16 00:43 49.54890 -45.62477 35198 ft 521 kts 78°
2026-04-16 00:43 49.56040 -45.51507 35192 ft 521 kts 78°
2026-04-16 00:44 49.57186 -45.40473 35191 ft 521 kts 78°
2026-04-16 00:44 49.58322 -45.29420 35188 ft 521 kts 78°
2026-04-16 00:45 49.59439 -45.18449 35183 ft 521 kts 78°
2026-04-16 00:45 49.60553 -45.07407 35185 ft 521 kts 78°
2026-04-16 00:46 49.61657 -44.96351 35180 ft 521 kts 78°
2026-04-16 00:46 49.62743 -44.85367 35177 ft 520 kts 78°
2026-04-16 00:47 49.63825 -44.74311 35174 ft 520 kts 79°
2026-04-16 00:47 49.64895 -44.63257 35168 ft 520 kts 79°
2026-04-16 00:48 49.65954 -44.52215 35172 ft 520 kts 79°
2026-04-16 00:48 49.66997 -44.41227 35169 ft 520 kts 79°
2026-04-16 00:50 49.71079 -43.97047 35158 ft 519 kts 79°
2026-04-16 00:51 49.72075 -43.85975 35151 ft 519 kts 80°
2026-04-16 00:51 49.73055 -43.74955 35148 ft 519 kts 80°
2026-04-16 00:52 49.74031 -43.63866 35148 ft 519 kts 80°
2026-04-16 00:52 49.74988 -43.52857 35148 ft 519 kts 80°
2026-04-16 00:53 49.75943 -43.41754 35144 ft 519 kts 80°
2026-04-16 00:53 49.76886 -43.30657 35142 ft 519 kts 80°
2026-04-16 00:54 49.77813 -43.19624 35140 ft 519 kts 81°
2026-04-16 00:54 49.78734 -43.08532 35139 ft 519 kts 81°
2026-04-16 00:55 49.79646 -42.97422 35133 ft 519 kts 81°
2026-04-16 00:55 49.80545 -42.86324 35135 ft 519 kts 81°
2026-04-16 00:56 49.81429 -42.75287 35130 ft 519 kts 81°
2026-04-16 00:56 49.82308 -42.64176 35129 ft 519 kts 81°
2026-04-16 00:57 49.83601 -42.47568 35122 ft 519 kts 81°
2026-04-16 00:58 49.84453 -42.36449 35123 ft 518 kts 81°
2026-04-16 00:58 49.85295 -42.25327 35117 ft 518 kts 81°
2026-04-16 00:59 49.86124 -42.14219 35119 ft 518 kts 82°
2026-04-16 00:59 49.86938 -42.03177 35113 ft 518 kts 82°
2026-04-16 01:00 49.87748 -41.92044 35108 ft 518 kts 82°
2026-04-16 01:00 49.88540 -41.81001 35106 ft 518 kts 82°
2026-04-16 01:01 49.89327 -41.69875 35104 ft 518 kts 82°
2026-04-16 01:01 49.90105 -41.58724 35101 ft 518 kts 82°
2026-04-16 01:02 49.90866 -41.47664 35098 ft 518 kts 82°
2026-04-16 01:02 49.91622 -41.36527 35097 ft 518 kts 82°
2026-04-16 01:03 49.92367 -41.25379 35087 ft 518 kts 82°
2026-04-16 01:03 49.93097 -41.14302 35092 ft 518 kts 82°
2026-04-16 01:04 49.93817 -41.03203 35091 ft 518 kts 82°
2026-04-16 01:04 49.94530 -40.92045 35081 ft 518 kts 82°
2026-04-16 01:05 49.95234 -40.80873 35080 ft 519 kts 82°
2026-04-16 01:05 49.95923 -40.69756 35073 ft 519 kts 82°
2026-04-16 01:06 49.96602 -40.58618 35078 ft 519 kts 82°
2026-04-16 01:06 49.97274 -40.47419 35068 ft 519 kts 82°
2026-04-16 01:07 49.97935 -40.36234 35066 ft 520 kts 83°
2026-04-16 01:07 49.98581 -40.25117 35064 ft 520 kts 83°
2026-04-16 01:08 49.99223 -40.13887 35063 ft 520 kts 83°
2026-04-16 01:08 50.00014 -40.02788 35055 ft 518 kts 76°
2026-04-16 01:09 50.01889 -39.92005 35056 ft 513 kts 66°
2026-04-16 01:09 50.04511 -39.81678 35054 ft 512 kts 65°
2026-04-16 01:10 50.07142 -39.71433 35051 ft 513 kts 65°
2026-04-16 01:10 50.09757 -39.61058 35041 ft 513 kts 65°
2026-04-16 01:11 50.12320 -39.50736 35042 ft 513 kts 65°
2026-04-16 01:11 50.14884 -39.40329 35041 ft 513 kts 65°
2026-04-16 01:12 50.17422 -39.29987 35036 ft 513 kts 66°
2026-04-16 01:12 50.19968 -39.19573 35029 ft 512 kts 66°
2026-04-16 01:13 50.22505 -39.09150 35022 ft 512 kts 66°
2026-04-16 01:13 50.25011 -38.98805 35018 ft 512 kts 66°
2026-04-16 01:14 50.27527 -38.88369 35018 ft 512 kts 66°
2026-04-16 01:14 50.30029 -38.77940 35022 ft 512 kts 66°
2026-04-16 01:15 50.32507 -38.67566 35022 ft 512 kts 66°
2026-04-16 01:15 50.34993 -38.57105 35005 ft 512 kts 66°
2026-04-16 01:16 50.37467 -38.46641 35008 ft 512 kts 66°
2026-04-16 01:16 50.39527 -38.37894 34997 ft 512 kts 66°
2026-04-16 01:17 50.41970 -38.27469 34996 ft 512 kts 66°
2026-04-16 01:17 50.44421 -38.16963 34993 ft 512 kts 67°
2026-04-16 01:18 50.46862 -38.06447 34985 ft 512 kts 67°
2026-04-16 01:18 50.49281 -37.95973 34981 ft 511 kts 67°
2026-04-16 01:19 50.51692 -37.85486 34977 ft 511 kts 67°
2026-04-16 01:19 50.54097 -37.74972 34973 ft 511 kts 67°
2026-04-16 01:20 50.56482 -37.64492 34967 ft 511 kts 68°
2026-04-16 01:20 50.58870 -37.53946 34964 ft 511 kts 68°
2026-04-16 01:21 50.61247 -37.43394 34961 ft 510 kts 68°
2026-04-16 01:21 50.63600 -37.32900 34954 ft 510 kts 68°
2026-04-16 01:22 50.65957 -37.22337 34950 ft 510 kts 68°
2026-04-16 01:22 50.68306 -37.11754 34948 ft 510 kts 68°
2026-04-16 01:23 50.70646 -37.01157 34940 ft 511 kts 68°
2026-04-16 01:23 50.72963 -36.90610 34938 ft 511 kts 69°
2026-04-16 01:24 50.75286 -36.79981 34928 ft 511 kts 69°
2026-04-16 01:24 50.77584 -36.69414 34924 ft 511 kts 69°
2026-04-16 01:25 50.79875 -36.58822 34922 ft 511 kts 69°
2026-04-16 01:25 50.82177 -36.48129 34920 ft 511 kts 69°
2026-04-16 01:26 50.84449 -36.37517 34918 ft 511 kts 69°
2026-04-16 01:26 50.86728 -36.26814 34911 ft 511 kts 69°
2026-04-16 01:27 50.88984 -36.16165 34905 ft 511 kts 69°
2026-04-16 01:27 50.91224 -36.05535 34899 ft 511 kts 70°
2026-04-16 01:28 50.93470 -35.94822 34897 ft 511 kts 70°
2026-04-16 01:28 50.95712 -35.84074 34893 ft 512 kts 70°
2026-04-16 01:29 50.97924 -35.73409 34889 ft 512 kts 70°
2026-04-16 01:29 51.00150 -35.62615 34881 ft 512 kts 70°
2026-04-16 01:30 51.02343 -35.51926 34878 ft 512 kts 70°
2026-04-16 01:30 51.04545 -35.41139 34877 ft 512 kts 70°
2026-04-16 01:31 51.06720 -35.30422 34874 ft 512 kts 70°
2026-04-16 01:31 51.08897 -35.19633 34857 ft 512 kts 71°
2026-04-16 01:32 51.11067 -35.08824 34851 ft 512 kts 71°
2026-04-16 01:32 51.13211 -34.98084 34848 ft 512 kts 71°
2026-04-16 01:33 51.15365 -34.87231 34863 ft 512 kts 71°
2026-04-16 01:33 51.17496 -34.76439 34844 ft 513 kts 71°
2026-04-16 01:34 51.19627 -34.65584 34840 ft 512 kts 71°
2026-04-16 01:34 51.21750 -34.54706 34835 ft 512 kts 71°
2026-04-16 01:35 51.23850 -34.43886 34836 ft 512 kts 71°
2026-04-16 01:35 51.25954 -34.32984 34830 ft 512 kts 71°
2026-04-16 01:36 51.28037 -34.22130 34827 ft 512 kts 72°
2026-04-16 01:36 51.30105 -34.11293 34816 ft 512 kts 72°
2026-04-16 01:37 51.32173 -34.00391 34816 ft 511 kts 72°
2026-04-16 01:37 51.34230 -33.89482 34811 ft 511 kts 72°
2026-04-16 01:38 51.36258 -33.78666 34808 ft 511 kts 72°
2026-04-16 01:38 51.38297 -33.67728 34803 ft 511 kts 72°
2026-04-16 01:39 51.40319 -33.56818 34795 ft 511 kts 72°
2026-04-16 01:39 51.42323 -33.45941 34793 ft 510 kts 72°
2026-04-16 01:40 51.44313 -33.35076 34787 ft 510 kts 73°
2026-04-16 01:40 51.46309 -33.24113 34791 ft 510 kts 73°
2026-04-16 01:41 51.48273 -33.13260 34777 ft 510 kts 73°
2026-04-16 01:41 51.50248 -33.02281 34775 ft 510 kts 73°
2026-04-16 01:42 51.52195 -32.91391 34773 ft 510 kts 73°
2026-04-16 01:42 51.54147 -32.80407 34771 ft 510 kts 73°
2026-04-16 01:43 51.56083 -32.69446 34765 ft 510 kts 73°
2026-04-16 01:43 51.58001 -32.58520 34758 ft 510 kts 73°
2026-04-16 01:44 51.59921 -32.47520 34751 ft 510 kts 73°
2026-04-16 01:44 51.61818 -32.36577 34754 ft 510 kts 74°
2026-04-16 01:45 51.63716 -32.25562 34744 ft 510 kts 74°
2026-04-16 01:45 51.65605 -32.14530 34743 ft 510 kts 74°
2026-04-16 01:46 51.67472 -32.03559 34741 ft 510 kts 74°
2026-04-16 01:46 51.69342 -31.92502 34741 ft 510 kts 74°
2026-04-16 01:47 51.71195 -31.81474 34734 ft 510 kts 74°
2026-04-16 01:47 51.73032 -31.70470 34729 ft 510 kts 75°
2026-04-16 01:48 51.74870 -31.59392 34725 ft 510 kts 75°
2026-04-16 01:48 51.76695 -31.48316 34723 ft 509 kts 75°
2026-04-16 01:49 51.78507 -31.37250 34720 ft 509 kts 75°
2026-04-16 01:49 51.80297 -31.26245 34712 ft 509 kts 75°
2026-04-16 01:50 51.82085 -31.15176 34709 ft 509 kts 75°
2026-04-16 01:50 51.83865 -31.04090 34705 ft 508 kts 75°
2026-04-16 01:51 51.85622 -30.93070 34699 ft 508 kts 75°
2026-04-16 01:51 51.87379 -30.81978 34700 ft 508 kts 76°
2026-04-16 01:52 51.89128 -30.70867 34697 ft 508 kts 76°
2026-04-16 01:52 51.90857 -30.59800 34697 ft 509 kts 76°
2026-04-16 01:53 51.92577 -30.48720 34690 ft 509 kts 76°
2026-04-16 01:53 51.94295 -30.37574 34684 ft 509 kts 76°
2026-04-16 01:54 51.96003 -30.26417 34682 ft 509 kts 76°
2026-04-16 01:54 51.97694 -30.15298 34677 ft 509 kts 76°
2026-04-16 01:55 51.99383 -30.04125 34675 ft 509 kts 76°
2026-04-16 01:55 52.01589 -29.93204 34678 ft 509 kts 68°
2026-04-16 01:56 52.04289 -29.82636 34677 ft 509 kts 67°
2026-04-16 01:56 52.07016 -29.72008 34669 ft 509 kts 68°
2026-04-16 01:57 52.09702 -29.61329 34668 ft 510 kts 68°
2026-04-16 01:57 52.12347 -29.50669 34660 ft 510 kts 68°
2026-04-16 01:58 52.14994 -29.39928 34664 ft 510 kts 68°
2026-04-16 01:58 52.17616 -29.29243 34660 ft 511 kts 68°
2026-04-16 01:59 52.20252 -29.18453 34657 ft 511 kts 68°
2026-04-16 01:59 52.22880 -29.07650 34652 ft 511 kts 68°
2026-04-16 02:00 52.25477 -28.96917 34647 ft 512 kts 69°
2026-04-16 02:00 52.28081 -28.86104 34651 ft 512 kts 69°
2026-04-16 02:01 52.30681 -28.75255 34649 ft 512 kts 69°
2026-04-16 02:01 52.32835 -28.66222 34647 ft 512 kts 69°
2026-04-16 02:02 52.35841 -28.53560 34632 ft 513 kts 69°
2026-04-16 02:02 52.37978 -28.44508 34632 ft 513 kts 69°
2026-04-16 02:03 52.40964 -28.31798 34627 ft 513 kts 69°
2026-04-16 02:03 52.43089 -28.22706 34637 ft 513 kts 69°
2026-04-16 02:04 52.46911 -28.06259 34629 ft 514 kts 69°
2026-04-16 02:04 52.49443 -27.95292 34629 ft 514 kts 69°
2026-04-16 02:05 52.51967 -27.84304 34625 ft 514 kts 69°
2026-04-16 02:05 52.54466 -27.73364 34626 ft 514 kts 70°
2026-04-16 02:06 52.56969 -27.62353 34619 ft 515 kts 70°
2026-04-16 02:06 52.59468 -27.51301 34621 ft 515 kts 70°
2026-04-16 02:07 52.61957 -27.40239 34622 ft 515 kts 70°
2026-04-16 02:07 52.64419 -27.29234 34618 ft 515 kts 70°
2026-04-16 02:08 52.66886 -27.18151 34616 ft 515 kts 70°
2026-04-16 02:08 52.69346 -27.07039 34619 ft 515 kts 70°
2026-04-16 02:09 52.71797 -26.95908 34610 ft 516 kts 70°
2026-04-16 02:09 52.74222 -26.84833 34607 ft 516 kts 70°
2026-04-16 02:10 52.76650 -26.73687 34610 ft 516 kts 70°
2026-04-16 02:10 52.79070 -26.62519 34608 ft 516 kts 71°
2026-04-16 02:11 52.81484 -26.51319 34604 ft 516 kts 71°
2026-04-16 02:11 52.83886 -26.40109 34604 ft 517 kts 71°
2026-04-16 02:12 52.86262 -26.28961 34605 ft 517 kts 71°
2026-04-16 02:12 52.88641 -26.17736 34604 ft 517 kts 71°
2026-04-16 02:13 52.91012 -26.06486 34601 ft 517 kts 71°
2026-04-16 02:13 52.93378 -25.95199 34606 ft 517 kts 71°
2026-04-16 02:14 52.95718 -25.83974 34602 ft 517 kts 71°
2026-04-16 02:14 52.98062 -25.72665 34601 ft 518 kts 71°
2026-04-16 02:15 53.00397 -25.61334 34595 ft 518 kts 71°
2026-04-16 02:15 53.02720 -25.49998 34596 ft 518 kts 71°
2026-04-16 02:16 53.05019 -25.38714 34593 ft 518 kts 72°
2026-04-16 02:16 53.07324 -25.27336 34594 ft 518 kts 72°
2026-04-16 02:17 53.09616 -25.15958 34592 ft 518 kts 72°
2026-04-16 02:17 53.11885 -25.04627 34595 ft 519 kts 72°
2026-04-16 02:18 53.14158 -24.93212 34596 ft 519 kts 72°
2026-04-16 02:18 53.16420 -24.81782 34592 ft 519 kts 72°
2026-04-16 02:19 53.18672 -24.70336 34594 ft 519 kts 72°
2026-04-16 02:19 53.20916 -24.58864 34594 ft 520 kts 72°
2026-04-16 02:20 53.23146 -24.47393 34594 ft 520 kts 72°
2026-04-16 02:20 53.25353 -24.35973 34591 ft 520 kts 72°
2026-04-16 02:21 53.27569 -24.24436 34589 ft 520 kts 73°
2026-04-16 02:21 53.29771 -24.12902 34589 ft 520 kts 73°
2026-04-16 02:22 53.31952 -24.01414 34593 ft 521 kts 73°
2026-04-16 02:22 53.34133 -23.89848 34592 ft 521 kts 73°
2026-04-16 02:23 53.36305 -23.78265 34590 ft 521 kts 73°
2026-04-16 02:23 53.38454 -23.66729 34599 ft 521 kts 73°
2026-04-16 02:24 53.40605 -23.55112 34602 ft 522 kts 73°
2026-04-16 02:24 53.42756 -23.43422 34887 ft 524 kts 73°
2026-04-16 02:25 53.43825 -23.37581 35193 ft 523 kts 73°
2026-04-16 02:25 53.44890 -23.31752 35495 ft 522 kts 73°
2026-04-16 02:25 53.45951 -23.25919 35764 ft 522 kts 73°
2026-04-16 02:25 53.46995 -23.20167 35988 ft 522 kts 73°
2026-04-16 02:26 53.48049 -23.14335 36221 ft 523 kts 73°
2026-04-16 02:26 53.49102 -23.08494 36464 ft 523 kts 73°
2026-04-16 02:26 53.51217 -22.96702 36583 ft 527 kts 74°
2026-04-16 02:27 53.53315 -22.84930 36585 ft 523 kts 74°
2026-04-16 02:27 53.55374 -22.73301 36591 ft 520 kts 74°
2026-04-16 02:28 53.57428 -22.61627 36595 ft 519 kts 74°
2026-04-16 02:28 53.59469 -22.49948 36599 ft 520 kts 74°
2026-04-16 02:29 53.61488 -22.38318 36603 ft 521 kts 74°
2026-04-16 02:29 53.63518 -22.26553 36604 ft 523 kts 74°
2026-04-16 02:30 53.65543 -22.14733 36598 ft 525 kts 75°
2026-04-16 02:30 53.67560 -22.02886 36604 ft 526 kts 75°
2026-04-16 02:31 53.69557 -21.91071 36600 ft 527 kts 75°
2026-04-16 02:31 53.71556 -21.79165 36600 ft 527 kts 75°
2026-04-16 02:32 53.73546 -21.67232 36604 ft 527 kts 75°
2026-04-16 02:32 53.75522 -21.55302 36603 ft 526 kts 75°
2026-04-16 02:33 53.77480 -21.43393 36607 ft 526 kts 75°
2026-04-16 02:33 53.79419 -21.31524 36607 ft 526 kts 75°
2026-04-16 02:34 53.81354 -21.19589 36607 ft 526 kts 75°
2026-04-16 02:34 53.83278 -21.07642 36610 ft 526 kts 75°
2026-04-16 02:35 53.85190 -20.95683 36607 ft 526 kts 76°
2026-04-16 02:35 53.87081 -20.83772 36611 ft 526 kts 76°
2026-04-16 02:36 53.88975 -20.71754 36609 ft 527 kts 76°
2026-04-16 02:36 53.90856 -20.59731 36614 ft 527 kts 76°
2026-04-16 02:37 53.92716 -20.47762 36612 ft 527 kts 76°
2026-04-16 02:37 53.94577 -20.35693 36614 ft 528 kts 76°
2026-04-16 02:38 53.96426 -20.23614 36613 ft 528 kts 76°
2026-04-16 02:38 53.98262 -20.11533 36611 ft 529 kts 76°
2026-04-16 02:39 53.99884 -19.99328 36616 ft 528 kts 83°
2026-04-16 02:39 54.00382 -19.86995 36622 ft 526 kts 90°
2026-04-16 02:40 54.00547 -19.74545 36619 ft 526 kts 90°
2026-04-16 02:40 54.00720 -19.62088 36617 ft 527 kts 90°
2026-04-16 02:41 54.00921 -19.49675 36616 ft 527 kts 90°
2026-04-16 02:41 54.01126 -19.37189 36620 ft 527 kts 90°
2026-04-16 02:42 54.01318 -19.24682 36619 ft 528 kts 90°
2026-04-16 02:42 54.01493 -19.12278 36623 ft 528 kts 90°
2026-04-16 02:43 54.01655 -18.99762 36624 ft 528 kts 90°
2026-04-16 02:43 54.01803 -18.87335 36629 ft 528 kts 91°
2026-04-16 02:44 54.01940 -18.74812 36628 ft 528 kts 91°
2026-04-16 02:44 54.02063 -18.62300 36633 ft 529 kts 91°
2026-04-16 02:45 54.02172 -18.49881 36630 ft 529 kts 91°
2026-04-16 02:45 54.02270 -18.37355 36635 ft 529 kts 91°
2026-04-16 02:46 54.02354 -18.24811 36631 ft 529 kts 91°
2026-04-16 02:46 54.02426 -18.12360 36638 ft 529 kts 91°
2026-04-16 02:47 54.02484 -17.99813 36642 ft 529 kts 91°
2026-04-16 02:47 54.02530 -17.87274 36637 ft 530 kts 92°
2026-04-16 02:48 54.02562 -17.74796 36642 ft 530 kts 92°
2026-04-16 02:48 54.02581 -17.62239 36648 ft 530 kts 92°
2026-04-16 02:49 54.02588 -17.49660 36648 ft 531 kts 92°
2026-04-16 02:49 54.02581 -17.37160 36647 ft 531 kts 92°
2026-04-16 02:50 54.02561 -17.24597 36647 ft 531 kts 92°
2026-04-16 02:50 54.02535 -17.14144 36653 ft 531 kts 92°
2026-04-16 02:51 54.02483 -16.99506 36656 ft 532 kts 92°
2026-04-16 02:51 54.02434 -16.88952 36657 ft 532 kts 92°
2026-04-16 02:52 54.02364 -16.76404 36662 ft 532 kts 92°
2026-04-16 02:52 54.02281 -16.63821 36659 ft 532 kts 93°
2026-04-16 02:53 54.02185 -16.51214 36663 ft 532 kts 93°
2026-04-16 02:53 54.02076 -16.38700 36664 ft 532 kts 93°
2026-04-16 02:54 54.01953 -16.26097 36668 ft 533 kts 93°
2026-04-16 02:54 54.01817 -16.13503 36674 ft 533 kts 93°
2026-04-16 02:55 54.01667 -16.00861 36676 ft 533 kts 94°
2026-04-16 02:55 54.01506 -15.88320 36677 ft 533 kts 94°
2026-04-16 02:56 54.01330 -15.75718 36675 ft 534 kts 94°
2026-04-16 02:56 54.01142 -15.63104 36678 ft 534 kts 94°
2026-04-16 02:57 54.00939 -15.50459 36680 ft 534 kts 94°
2026-04-16 02:57 54.00723 -15.37823 36685 ft 534 kts 94°
2026-04-16 02:58 54.00494 -15.25176 36681 ft 535 kts 94°
2026-04-16 02:58 54.00253 -15.12547 36687 ft 535 kts 94°
2026-04-16 02:59 53.99999 -14.99898 36688 ft 535 kts 94°
2026-04-16 02:59 53.99935 -14.87298 36698 ft 536 kts 91°
2026-04-16 03:00 54.00038 -14.74594 36699 ft 537 kts 91°
2026-04-16 03:00 54.00101 -14.61868 36700 ft 537 kts 92°
2026-04-16 03:01 54.00109 -14.49235 36698 ft 537 kts 92°
2026-04-16 03:01 54.00096 -14.36513 36703 ft 537 kts 92°
2026-04-16 03:02 54.00073 -14.23767 36704 ft 538 kts 92°
2026-04-16 03:02 54.00040 -14.11127 36705 ft 538 kts 92°
2026-04-16 03:03 53.99992 -13.98384 36705 ft 538 kts 93°
2026-04-16 03:03 53.99728 -13.85648 36706 ft 538 kts 95°
2026-04-16 03:04 53.99328 -13.73034 36718 ft 538 kts 96°
2026-04-16 03:04 53.98929 -13.60331 36710 ft 539 kts 95°
2026-04-16 03:05 53.98548 -13.47598 36720 ft 539 kts 95°
2026-04-16 03:05 53.98167 -13.34860 36719 ft 539 kts 95°
2026-04-16 03:06 53.97775 -13.22184 36722 ft 539 kts 96°
2026-04-16 03:07 53.97152 -13.03055 36730 ft 540 kts 96°
2026-04-16 03:07 53.96722 -12.90382 36727 ft 540 kts 96°
2026-04-16 03:08 53.96276 -12.77640 36736 ft 540 kts 96°
2026-04-16 03:08 53.95816 -12.64887 36730 ft 540 kts 96°
2026-04-16 03:09 53.95345 -12.52205 36739 ft 541 kts 96°
2026-04-16 03:09 53.94859 -12.39470 36741 ft 541 kts 96°
2026-04-16 03:10 53.94359 -12.26720 36744 ft 541 kts 96°
2026-04-16 03:10 53.93844 -12.13949 36738 ft 541 kts 96°
2026-04-16 03:11 53.93319 -12.01262 36748 ft 541 kts 97°
2026-04-16 03:11 53.92776 -11.88477 36748 ft 542 kts 97°
2026-04-16 03:12 53.92221 -11.75737 36751 ft 542 kts 97°
2026-04-16 03:12 53.91656 -11.63053 36751 ft 542 kts 97°
2026-04-16 03:13 53.91072 -11.50278 36759 ft 542 kts 97°
2026-04-16 03:13 53.90477 -11.37530 36758 ft 542 kts 97°
2026-04-16 03:14 53.89867 -11.24780 36764 ft 542 kts 97°
2026-04-16 03:14 53.89243 -11.12011 36767 ft 542 kts 97°
2026-04-16 03:15 53.88606 -10.99261 36771 ft 543 kts 97°
2026-04-16 03:15 53.87960 -10.86603 36774 ft 543 kts 97°
2026-04-16 03:16 53.87296 -10.73858 36773 ft 543 kts 98°
2026-04-16 03:16 53.86618 -10.61109 36778 ft 543 kts 98°
2026-04-16 03:17 53.85926 -10.48366 36782 ft 543 kts 98°
2026-04-16 03:17 53.85221 -10.35611 36782 ft 543 kts 98°
2026-04-16 03:18 53.84507 -10.22964 36789 ft 543 kts 98°
2026-04-16 03:18 53.83775 -10.10221 36787 ft 543 kts 98°
2026-04-16 03:19 53.83028 -9.97471 36793 ft 542 kts 98°
2026-04-16 03:19 53.82271 -9.84774 36793 ft 542 kts 98°
2026-04-16 03:20 53.81505 -9.72157 36790 ft 542 kts 98°
2026-04-16 03:20 53.80720 -9.59457 36797 ft 542 kts 99°
2026-04-16 03:21 53.79923 -9.46779 36798 ft 542 kts 99°
2026-04-16 03:21 53.79110 -9.34063 36798 ft 543 kts 99°
2026-04-16 03:22 53.78287 -9.21416 36798 ft 543 kts 99°
2026-04-16 03:22 53.77447 -9.08718 36807 ft 543 kts 99°
2026-04-16 03:23 53.76594 -8.96026 36810 ft 543 kts 99°
2026-04-16 03:23 53.75727 -8.83316 36814 ft 543 kts 99°
2026-04-16 03:24 53.74851 -8.70696 36821 ft 543 kts 99°
2026-04-16 03:24 53.73958 -8.58003 36820 ft 543 kts 99°
2026-04-16 03:25 53.73051 -8.45328 36817 ft 543 kts 99°
2026-04-16 03:25 53.72131 -8.32661 36814 ft 543 kts 100°
2026-04-16 03:26 53.71202 -8.20056 36820 ft 544 kts 100°
2026-04-16 03:26 53.70253 -8.07367 36829 ft 544 kts 100°
2026-04-16 03:27 53.69290 -7.94673 36822 ft 544 kts 100°
2026-04-16 03:27 53.68320 -7.82080 36828 ft 544 kts 100°
2026-04-16 03:28 53.67331 -7.69407 36827 ft 544 kts 100°
2026-04-16 03:28 53.66329 -7.56745 36826 ft 544 kts 100°
2026-04-16 03:29 53.65314 -7.44096 36828 ft 544 kts 101°
2026-04-16 03:29 53.64292 -7.31529 36832 ft 544 kts 101°
2026-04-16 03:30 53.63250 -7.18888 36839 ft 544 kts 101°
2026-04-16 03:30 53.62194 -7.06244 36833 ft 544 kts 101°
2026-04-16 03:31 53.61132 -6.93695 36839 ft 544 kts 101°
2026-04-16 03:31 53.60051 -6.81081 36838 ft 544 kts 101°
2026-04-16 03:32 53.58955 -6.68449 36845 ft 544 kts 101°
2026-04-16 03:34 53.54444 -6.18063 36850 ft 546 kts 101°
2026-04-16 03:34 53.53277 -6.05421 36851 ft 546 kts 102°
2026-04-16 03:35 53.52098 -5.92795 36859 ft 546 kts 102°
2026-04-16 03:35 53.50914 -5.80259 36862 ft 547 kts 102°
2026-04-16 03:36 53.49708 -5.67641 36884 ft 547 kts 102°
2026-04-16 03:36 53.48491 -5.55030 36888 ft 546 kts 102°
2026-04-16 03:37 53.47692 -5.42328 36896 ft 548 kts 94°
2026-04-16 03:37 53.47440 -5.29525 36898 ft 548 kts 94°
2026-04-16 03:38 53.47124 -5.16820 36902 ft 548 kts 95°
2026-04-16 03:38 53.46715 -5.04055 36901 ft 547 kts 95°
2026-04-16 03:39 53.46285 -4.91310 36903 ft 546 kts 95°
2026-04-16 03:39 53.45925 -4.80737 36909 ft 545 kts 95°
2026-04-16 03:40 53.45467 -4.68025 36903 ft 545 kts 95°
2026-04-16 03:40 53.45020 -4.55321 36909 ft 544 kts 95°
2026-04-16 03:41 53.44618 -4.42718 36904 ft 543 kts 95°
2026-04-16 03:41 53.44186 -4.30054 36901 ft 543 kts 96°
2026-04-16 03:42 53.43671 -4.17407 36903 ft 542 kts 96°
2026-04-16 03:42 53.43139 -4.04846 36900 ft 542 kts 96°
2026-04-16 03:43 53.42607 -3.92189 36908 ft 543 kts 96°
2026-04-16 03:43 53.42090 -3.79566 36908 ft 543 kts 96°
2026-04-16 03:44 53.41564 -3.66920 36909 ft 543 kts 96°
2026-04-16 03:44 53.41020 -3.54270 36913 ft 544 kts 96°
2026-04-16 03:45 53.40471 -3.41645 36916 ft 544 kts 96°
2026-04-16 03:45 53.39913 -3.29061 36927 ft 544 kts 96°
2026-04-16 03:46 53.39341 -3.16435 36933 ft 543 kts 96°
2026-04-16 03:46 53.38805 -3.03795 36936 ft 543 kts 95°
2026-04-16 03:47 53.38349 -2.91194 36941 ft 542 kts 95°
2026-04-16 03:47 53.37878 -2.78575 36932 ft 541 kts 96°
2026-04-16 03:48 53.37379 -2.66012 36936 ft 540 kts 96°
2026-04-16 03:48 53.36865 -2.53531 36954 ft 539 kts 96°
2026-04-16 03:49 53.36340 -2.41039 36961 ft 537 kts 96°
2026-04-16 03:49 53.35804 -2.28563 36963 ft 536 kts 96°
2026-04-16 03:50 53.34775 -2.16229 36987 ft 533 kts 102°
2026-04-16 03:50 53.33457 -2.04102 36959 ft 533 kts 103°
2026-04-16 03:51 53.32146 -1.91893 36967 ft 534 kts 102°
2026-04-16 03:51 53.30857 -1.79634 36944 ft 535 kts 102°
2026-04-16 03:52 53.29560 -1.67381 36944 ft 535 kts 102°
2026-04-16 03:52 53.28242 -1.55124 36947 ft 536 kts 103°
2026-04-16 03:53 53.26913 -1.42860 36957 ft 536 kts 103°
2026-04-16 03:53 53.25572 -1.30587 36949 ft 537 kts 103°
2026-04-16 03:54 53.24220 -1.18327 36950 ft 537 kts 103°
2026-04-16 03:54 53.22859 -1.06123 36963 ft 538 kts 103°
2026-04-16 03:55 53.21479 -0.93850 36977 ft 537 kts 103°
2026-04-16 03:55 53.20086 -0.81578 36979 ft 537 kts 103°
2026-04-16 03:56 53.18681 -0.69335 36990 ft 537 kts 103°
2026-04-16 03:56 53.17277 -0.57185 36991 ft 537 kts 103°
2026-04-16 03:57 53.15851 -0.44964 36991 ft 537 kts 103°
2026-04-16 03:57 53.14415 -0.32765 36990 ft 536 kts 104°
2026-04-16 03:58 53.12966 -0.20572 36991 ft 536 kts 104°
2026-04-16 03:58 53.11503 -0.08374 36991 ft 536 kts 104°
2026-04-16 03:59 53.10029 0.03802 36991 ft 536 kts 104°
2026-04-16 03:59 53.08552 0.15893 36995 ft 536 kts 104°
2026-04-16 04:00 53.07052 0.28061 37002 ft 536 kts 104°
2026-04-16 04:00 53.05543 0.40204 37021 ft 535 kts 104°
2026-04-16 04:01 53.04020 0.52340 37023 ft 535 kts 104°
2026-04-16 04:01 53.02499 0.64358 37031 ft 535 kts 104°
2026-04-16 04:02 53.00956 0.76449 37034 ft 534 kts 104°
2026-04-16 04:02 52.99405 0.88508 37054 ft 533 kts 104°
2026-04-16 04:03 52.97770 1.00516 37054 ft 531 kts 108°
2026-04-16 04:03 52.95341 1.11958 37061 ft 528 kts 114°
2026-04-16 04:04 52.92691 1.23298 37062 ft 527 kts 114°
2026-04-16 04:04 52.90057 1.34656 37065 ft 527 kts 114°
2026-04-16 04:05 52.87450 1.46006 37056 ft 526 kts 114°
2026-04-16 04:05 52.84866 1.57253 37063 ft 526 kts 114°
2026-04-16 04:06 52.82253 1.68550 37066 ft 525 kts 114°
2026-04-16 04:06 52.79632 1.79812 37077 ft 525 kts 114°
2026-04-16 04:07 52.77002 1.91054 37078 ft 524 kts 114°
2026-04-16 04:07 52.73044 2.07854 37089 ft 524 kts 114°
2026-04-16 04:08 52.70388 2.19059 37086 ft 524 kts 114°
2026-04-16 04:08 52.67711 2.30295 37096 ft 525 kts 114°
2026-04-16 04:09 52.65048 2.41410 37097 ft 525 kts 114°
2026-04-16 04:09 52.62356 2.52594 37101 ft 525 kts 114°
2026-04-16 04:10 52.59655 2.63760 37102 ft 525 kts 114°
2026-04-16 04:10 52.56939 2.74932 37112 ft 525 kts 115°
2026-04-16 04:11 52.54173 2.86063 37108 ft 524 kts 117°
2026-04-16 04:11 52.51089 2.96818 37112 ft 524 kts 118°
2026-04-16 04:12 52.47906 3.07577 37117 ft 524 kts 118°
2026-04-16 04:12 52.44721 3.18362 37100 ft 524 kts 118°
2026-04-16 04:13 52.41549 3.29143 37087 ft 525 kts 118°
2026-04-16 04:13 52.38375 3.39911 37100 ft 525 kts 118°
2026-04-16 04:14 52.35211 3.50592 37105 ft 525 kts 118°
2026-04-16 04:14 52.32009 3.61349 37117 ft 525 kts 118°
2026-04-16 04:15 52.28804 3.72066 37127 ft 525 kts 118°
2026-04-16 04:15 52.25605 3.82711 37136 ft 525 kts 118°
2026-04-16 04:16 52.22372 3.93425 37136 ft 525 kts 118°
2026-04-16 04:16 52.19139 4.04092 37144 ft 525 kts 118°
2026-04-16 04:17 52.15892 4.14758 37143 ft 525 kts 118°
2026-04-16 04:17 52.12654 4.25346 37149 ft 525 kts 118°
2026-04-16 04:18 52.09388 4.35980 37143 ft 525 kts 118°
2026-04-16 04:18 52.06110 4.46606 37162 ft 525 kts 118°
2026-04-16 04:19 52.02824 4.57213 37147 ft 525 kts 118°
2026-04-16 04:19 51.99549 4.67737 37149 ft 525 kts 118°
2026-04-16 04:20 51.96246 4.78303 37145 ft 525 kts 118°
2026-04-16 04:20 51.92937 4.88847 37144 ft 524 kts 118°
2026-04-16 04:21 51.89624 4.99354 37145 ft 524 kts 118°
2026-04-16 04:21 51.86295 5.09870 37152 ft 524 kts 118°
2026-04-16 04:22 51.82957 5.20369 37144 ft 524 kts 118°
2026-04-16 04:22 51.79635 5.30770 37159 ft 524 kts 118°
2026-04-16 04:23 51.76285 5.41218 37153 ft 524 kts 118°
2026-04-16 04:23 51.72917 5.51675 37158 ft 524 kts 118°
2026-04-16 04:24 51.69544 5.62106 37154 ft 524 kts 118°
2026-04-16 04:24 51.66185 5.72448 37158 ft 524 kts 118°
2026-04-16 04:25 51.62793 5.82850 37155 ft 523 kts 118°
2026-04-16 04:25 51.59972 5.91468 37157 ft 523 kts 118°
2026-04-16 04:26 51.56569 6.01823 37154 ft 523 kts 118°
2026-04-16 04:26 51.53157 6.12169 37159 ft 522 kts 118°
2026-04-16 04:27 51.49821 6.22458 37156 ft 522 kts 115°
2026-04-16 04:27 51.47108 6.33243 37165 ft 521 kts 111°
2026-04-16 04:28 51.44508 6.44096 37171 ft 521 kts 111°
2026-04-16 04:28 51.41866 6.54920 37176 ft 520 kts 111°
2026-04-16 04:29 51.39193 6.65692 37177 ft 519 kts 111°
2026-04-16 04:29 51.36526 6.76373 36754 ft 525 kts 111°
2026-04-16 04:30 51.35158 6.81836 36005 ft 529 kts 111°
2026-04-16 04:30 51.33791 6.87289 35184 ft 529 kts 111°
2026-04-16 04:30 51.32415 6.92763 34327 ft 530 kts 112°
2026-04-16 04:30 51.31032 6.98256 33306 ft 531 kts 111°
2026-04-16 04:31 51.29646 7.03749 32337 ft 532 kts 111°
2026-04-16 04:31 51.28209 7.09194 31337 ft 529 kts 117°
2026-04-16 04:31 51.26147 7.14028 30482 ft 526 kts 134°
2026-04-16 04:31 51.23623 7.17675 29798 ft 517 kts 147°
2026-04-16 04:32 51.20585 7.20362 29092 ft 506 kts 158°
2026-04-16 04:32 51.17386 7.22620 28423 ft 500 kts 158°
2026-04-16 04:32 51.14250 7.24957 27757 ft 495 kts 156°
2026-04-16 04:32 51.11171 7.27383 27101 ft 491 kts 155°
2026-04-16 04:33 51.08154 7.29882 26460 ft 486 kts 154°
2026-04-16 04:33 51.05195 7.32358 25825 ft 482 kts 154°
2026-04-16 04:33 51.02235 7.34818 25189 ft 478 kts 154°
2026-04-16 04:33 50.99299 7.37239 24576 ft 474 kts 154°
2026-04-16 04:34 50.96360 7.39652 23947 ft 471 kts 154°
2026-04-16 04:34 50.93457 7.42033 23222 ft 468 kts 154°
2026-04-16 04:34 50.90576 7.44395 22561 ft 463 kts 154°
2026-04-16 04:34 50.87727 7.46728 21943 ft 458 kts 154°
2026-04-16 04:35 50.84905 7.49035 21335 ft 453 kts 154°
2026-04-16 04:35 50.82146 7.51287 20739 ft 449 kts 154°
2026-04-16 04:35 50.79384 7.53539 20149 ft 445 kts 154°
2026-04-16 04:35 50.76648 7.55767 19568 ft 441 kts 154°
2026-04-16 04:36 50.73936 7.57973 18980 ft 437 kts 154°
2026-04-16 04:36 50.71241 7.60162 18404 ft 433 kts 154°
2026-04-16 04:36 50.68570 7.62328 17742 ft 430 kts 154°
2026-04-16 04:36 50.65927 7.64470 17138 ft 425 kts 154°
2026-04-16 04:37 50.63310 7.66588 16537 ft 414 kts 154°
2026-04-16 04:37 50.60794 7.68623 16004 ft 402 kts 154°
2026-04-16 04:37 50.58308 7.70628 15459 ft 399 kts 154°
2026-04-16 04:37 50.55841 7.72614 14920 ft 396 kts 154°
2026-04-16 04:38 50.53393 7.74583 14377 ft 394 kts 154°
2026-04-16 04:38 50.50966 7.76533 13844 ft 391 kts 154°
2026-04-16 04:38 50.48574 7.78455 13239 ft 388 kts 154°
2026-04-16 04:38 50.46185 7.80370 12695 ft 385 kts 154°
2026-04-16 04:39 50.43804 7.82284 12157 ft 381 kts 153°
2026-04-16 04:39 50.41591 7.84498 11644 ft 377 kts 144°
2026-04-16 04:39 50.39552 7.87052 11208 ft 372 kts 141°
2026-04-16 04:39 50.37612 7.89615 11075 ft 359 kts 140°
2026-04-16 04:40 50.35762 7.92030 10890 ft 330 kts 141°
2026-04-16 04:40 50.34068 7.94192 10747 ft 300 kts 142°
2026-04-16 04:40 50.32493 7.96166 10653 ft 283 kts 142°
2026-04-16 04:40 50.30987 7.98038 10534 ft 274 kts 142°
2026-04-16 04:41 50.29513 7.99859 10425 ft 266 kts 142°
2026-04-16 04:41 50.28046 8.01668 10336 ft 273 kts 142°
2026-04-16 04:41 50.26530 8.03547 10242 ft 281 kts 140°
2026-04-16 04:41 50.25188 8.05760 10140 ft 281 kts 129°
2026-04-16 04:42 50.23999 8.08199 10063 ft 282 kts 127°
2026-04-16 04:42 50.22835 8.10673 9966 ft 282 kts 127°
2026-04-16 04:42 50.21669 8.13130 9876 ft 281 kts 127°
2026-04-16 04:42 50.20495 8.15569 9781 ft 279 kts 127°
2026-04-16 04:43 50.19324 8.17978 9701 ft 278 kts 127°
2026-04-16 04:43 50.18150 8.20376 9621 ft 277 kts 128°
2026-04-16 04:43 50.16981 8.22752 9536 ft 276 kts 128°
2026-04-16 04:43 50.15822 8.25100 9458 ft 276 kts 128°
2026-04-16 04:44 50.14655 8.27462 9378 ft 275 kts 128°
2026-04-16 04:44 50.13482 8.29827 9300 ft 275 kts 128°
2026-04-16 04:44 50.12311 8.32186 9224 ft 275 kts 128°
2026-04-16 04:44 50.11136 8.34549 9145 ft 275 kts 127°
2026-04-16 04:45 50.10271 8.37147 9021 ft 272 kts 101°
2026-04-16 04:45 50.10288 8.40058 8966 ft 271 kts 75°
2026-04-16 04:45 50.10897 8.42849 8923 ft 274 kts 69°
2026-04-16 04:45 50.11581 8.45653 8831 ft 278 kts 69°
2026-04-16 04:46 50.12263 8.48435 8750 ft 277 kts 69°
2026-04-16 04:46 50.12945 8.51233 8665 ft 276 kts 69°
2026-04-16 04:46 50.13621 8.54023 8586 ft 274 kts 69°
2026-04-16 04:46 50.14293 8.56815 8452 ft 274 kts 69°
2026-04-16 04:47 50.14959 8.59598 8193 ft 272 kts 69°
2026-04-16 04:47 50.15617 8.62355 7942 ft 269 kts 69°
2026-04-16 04:47 50.16263 8.65075 7686 ft 266 kts 69°
2026-04-16 04:47 50.16902 8.67765 7440 ft 263 kts 69°
2026-04-16 04:48 50.17528 8.70398 7183 ft 260 kts 69°
2026-04-16 04:48 50.18153 8.73035 6926 ft 258 kts 69°
2026-04-16 04:48 50.18773 8.75651 6690 ft 256 kts 69°
2026-04-16 04:48 50.19389 8.78252 6423 ft 253 kts 69°
2026-04-16 04:49 50.19995 8.80818 6163 ft 251 kts 69°
2026-04-16 04:49 50.20590 8.83347 5906 ft 250 kts 69°
2026-04-16 04:49 50.21191 8.85902 5663 ft 251 kts 69°
2026-04-16 04:49 50.21794 8.88469 5407 ft 252 kts 69°
2026-04-16 04:50 50.22397 8.91038 5150 ft 251 kts 69°
2026-04-16 04:50 50.22996 8.93596 4908 ft 251 kts 69°
2026-04-16 04:50 50.23595 8.96152 4651 ft 250 kts 69°
2026-04-16 04:50 50.24191 8.98700 4384 ft 248 kts 69°
2026-04-16 04:51 50.24781 9.01228 4123 ft 246 kts 70°
2026-04-16 04:51 50.25046 9.03777 4014 ft 236 kts 97°
2026-04-16 04:51 50.24450 9.06062 3993 ft 232 kts 129°
2026-04-16 04:51 50.23158 9.07497 3984 ft 230 kts 162°
2026-04-16 04:52 50.21574 9.07623 4001 ft 233 kts 194°
2026-04-16 04:52 50.20106 9.06572 4013 ft 234 kts 211°
2026-04-16 04:52 50.18715 9.05187 4012 ft 238 kts 213°
2026-04-16 04:52 50.17329 9.03758 4003 ft 239 kts 213°
2026-04-16 04:53 50.15955 9.02332 3989 ft 235 kts 213°
2026-04-16 04:53 50.14707 9.00757 3972 ft 227 kts 234°
2026-04-16 04:53 50.14031 8.98612 4005 ft 216 kts 249°
2026-04-16 04:53 50.13503 8.96458 3994 ft 215 kts 249°
2026-04-16 04:54 50.12980 8.94287 3989 ft 212 kts 250°
2026-04-16 04:54 50.12467 8.92132 3998 ft 213 kts 250°
2026-04-16 04:54 50.11950 8.89955 4012 ft 214 kts 250°
2026-04-16 04:54 50.11433 8.87774 4011 ft 216 kts 250°
2026-04-16 04:55 50.10910 8.85574 4004 ft 216 kts 250°
2026-04-16 04:55 50.10388 8.83374 3728 ft 213 kts 249°
2026-04-16 04:55 50.09894 8.81298 3439 ft 202 kts 249°
2026-04-16 04:55 50.09421 8.79308 3178 ft 187 kts 249°
2026-04-16 04:56 50.08985 8.77473 2897 ft 174 kts 248°
2026-04-16 04:56 50.08583 8.75782 2669 ft 163 kts 248°
2026-04-16 04:56 50.08186 8.74116 2467 ft 163 kts 248°
2026-04-16 04:56 50.07789 8.72455 2219 ft 164 kts 248°
2026-04-16 04:57 50.07387 8.70811 2034 ft 158 kts 246°
2026-04-16 04:57 50.06986 8.69236 1866 ft 157 kts 246°
2026-04-16 04:57 50.06606 8.67674 1731 ft 156 kts 249°
2026-04-16 04:57 50.06289 8.66106 1594 ft 152 kts 250°
2026-04-16 04:58 50.05914 8.64555 1284 ft 153 kts 248°
2026-04-16 04:58 50.05539 8.63018 995 ft 150 kts 248°
2026-04-16 04:58 50.05192 8.61519 786 ft 144 kts 250°
2026-04-16 04:58 50.04850 8.60079 591 ft 142 kts 248°
2026-04-16 04:59 50.04503 8.58640 397 ft 140 kts 249°
2026-04-16 04:59 50.04187 8.57329 360 ft 116 kts 248°
2026-04-16 04:59 50.03957 8.56368 360 ft 70 kts 249°
2026-04-16 04:59 50.03836 8.55868 359 ft 41 kts 249°
2026-04-16 05:00 50.03786 8.55660 355 ft 12 kts 251°
2026-04-16 05:00 50.03812 8.55542 360 ft 13 kts 322°
2026-04-16 05:00 50.03885 8.55492 359 ft 9 kts 341°
2026-04-16 05:00 50.03948 8.55472 357 ft 10 kts 350°
2026-04-16 05:01 50.04013 8.55442 359 ft 10 kts 339°
2026-04-16 05:01 50.04081 8.55414 357 ft 11 kts
2026-04-16 05:01 50.04133 8.55492 352 ft 11 kts 65°
2026-04-16 05:01 50.04162 8.55604 360 ft 11 kts 68°
2026-04-16 05:02 50.04192 8.55720 355 ft 12 kts 68°
2026-04-16 05:02 50.04223 8.55842 358 ft 12 kts 69°
2026-04-16 05:02 50.04253 8.55967 356 ft 12 kts 69°
2026-04-16 05:02 50.04290 8.56047 355 ft 9 kts 26°
2026-04-16 05:03 50.04354 8.56045 353 ft 10 kts 344°
2026-04-16 05:03 50.04420 8.56051 358 ft 10 kts 30°
2026-04-16 05:03 50.04457 8.56140 358 ft 10 kts 67°
2026-04-16 05:04 50.04508 8.56346 357 ft 10 kts 69°
2026-04-16 05:04 50.04551 8.56432 355 ft 10 kts 32°
2026-04-16 05:04 50.04603 8.56476 360 ft 9 kts 26°
2026-04-16 05:04 50.04659 8.56518 358 ft 9 kts 27°
2026-04-16 05:05 50.04710 8.56574 355 ft 7 kts 44°
2026-04-16 05:05 50.04713 8.56580 356 ft 1 kts 45°
2026-04-16 05:05 50.04720 8.56590 360 ft 2 kts 45°
2026-04-16 05:05 50.04731 8.56606 359 ft 3 kts 37°
2026-04-16 05:06 50.04751 8.56610 358 ft 3 kts 359°
2026-04-16 05:06 50.04775 8.56599 354 ft 4 kts 342°
2026-04-16 05:06 50.04795 8.56592 355 ft 0 kts 350°
2026-04-16 05:06 50.04800 8.56591 353 ft 1 kts 348°
2026-04-16 05:07 50.04804 8.56588 355 ft 0 kts 342°